Regional Weather Roundup
Issued by NWS

Home | Current Version | Previous Version | Graphics & Text | Print | Product List | Glossary On
Versions: 1 2 3 4 5 6 7 8 9 10 11 12 13 14 15 16 17 18 19 20 21 22 23 24 25 26 27 28 29 30 31 32 33 34 35 36 37 38 39 40 41 42 43 44 45 46 47 48 49 50
000
ASUS43 KDMX 170806
RWRIA

WEATHER ROUNDUP FOR IOWA
NATIONAL WEATHER SERVICE DES MOINES IA
200 AM CST SAT FEB 17 2018

NOTE: "FAIR" INDICATES FEW OR NO CLOUDS BELOW 12,000 FEET WITH NO
SIGNIFICANT WEATHER AND/OR OBSTRUCTIONS TO VISIBILITY.

* - THESE STATIONS ARE NOT NWS STATIONS...THUS NOT UNDER NWS
QUALITY CONTROL.  THEY ALSO DO NOT REPORT WEATHER SUCH
AS PRECIPITATION OR FOG.

IAZ001>003-012>014-020>022-031>034-043>046-170900-
   NORTHWEST IOWA

CITY           SKY/WX    TMP DP  RH WIND       PRES   REMARKS
CARROLL *      CLOUDY    27  16  63 S12       30.01F WCI  16
CHEROKEE *     CLOUDY    25  15  65 S14       29.96F WCI  13
DENISON *      CLOUDY    27  14  59 S17G26    29.99F WCI  14
LE MARS *      CLOUDY    25  16  68 SW8G15    29.95S WCI  16
ORANGE CITY *  CLOUDY    25  18  74 S10       29.92F WCI  15
SHELDON *      CLOUDY    25  16  68 S15G21    29.91F WCI  12
SIOUX CITY     CLOUDY    28  16  60 S12       29.96F WCI  18
SPENCER        CLOUDY    24  14  65 S12       29.95F WCI  13
STORM LAKE *   CLOUDY    23  14  68 S12       29.96F WCI  12
$$

IAZ055>058-069>071-079>083-090>094-170900-
   SOUTHWEST IOWA

CITY           SKY/WX    TMP DP  RH WIND       PRES   REMARKS
ATLANTIC *     CLOUDY    27  14  59 S10       30.02F WCI  17
AUDUBON *      CLOUDY    27  12  54 S5G17     30.01F WCI  21
CLARINDA *     CLOUDY    27  19  74 SW6       30.09F WCI  20
COUNCIL BLFS * CLOUDY    28  16  59 S9        30.01F WCI  20
CRESTON *      CLOUDY    27  10  50 S10       30.06F WCI  17
HARLAN  *      CLOUDY    27  16  63 S8        30.05F WCI  18
LAMONI         CLOUDY    25   7  46 S6        30.06F WCI  18
RED OAK *      CLOUDY    28  16  59 S6        30.04F WCI  22
SHENANDOAH *   CLOUDY    30  14  51 S13       30.06F WCI  20
$$

IAZ047>049-059>061-072>074-084-170900-
   CENTRAL IOWA

CITY           SKY/WX    TMP DP  RH WIND       PRES   REMARKS
AMES           CLOUDY    18  11  74 SE7       30.08F WCI   9
ANKENY *       CLOUDY    21  12  68 S5        30.10F WCI  15
BOONE *        CLOUDY    23  14  68 S10       30.04F WCI  12
CHARITON *     MOCLDY    23   9  54 S9        30.09F WCI  13
DES MOINES     CLOUDY    22  10  60 SE8       30.08F WCI  12
GRINNELL*      CLOUDY    19  11  70 SE7       30.11F WCI  10
KNOXVILLE *    PTCLDY    21   9  58 S8        30.08F WCI  12
MARSHALLTOWN   CLOUDY    20  10  65 S9        30.09F WCI   9
NEWTON *       CLOUDY    18  12  79 SE8       30.10F WCI   7
PELLA *        PTCLDY    20  10  66 SE3       30.13F
PERRY *        CLOUDY    21  17  85 SE8       30.05F WCI  12
$$

IAZ004>006-015-016-023>025-035-036-170900-
   NORTH CENTRAL IOWA

CITY           SKY/WX    TMP DP  RH WIND       PRES   REMARKS
ALGONA *       CLOUDY    21 N/A N/A S20       29.97F WCI   6
CLARION *      CLOUDY    19  18  93 S14       30.02F WCI   6
ESTHERVILLE    CLOUDY    20  14  77 SW13      29.95F WCI   7
FORT DODGE *   CLOUDY    23  14  68 S13       30.02F WCI  11
MASON CITY     CLOUDY    20  10  65 S14       30.02F WCI   7
FOREST CITY *  FAIR      25  14  63 S16G22    29.99F WCI  12
WEBSTER CITY * CLOUDY    21  12  68 S13       30.01F WCI   9
IOWA FALLS *   FAIR      20  13  73 S10       30.06F WCI   9
$$

IAZ007>011-017>019-026>030-037>042-050>054-066-170900-
   NORTHEAST IOWA

CITY           SKY/WX    TMP DP  RH WIND       PRES   REMARKS
CEDAR RAPIDS   FAIR      19  10  68 S8        30.13F WCI   9
CHARLES CITY * CLOUDY    18   9  68 S13G20    30.06F WCI   4
CLINTON *      FAIR      13   8  81 SE9       30.19F WCI   1
DECORAH *      FAIR      18   7  62 S12G20    30.05F WCI   5
DUBUQUE        FAIR      13   6  74 SW12      30.12F WCI  -1
MONTICELLO *   FAIR      16   9  73 SE6       30.14F WCI   7
OELWEIN *      CLOUDY    16  10  79 S13       30.10F WCI   2
WATERLOO       FAIR      17  10  74 S8        30.09F WCI   7
$$

IAZ064-065-067-068-078-170900-
   EAST CENTRAL IOWA

CITY           SKY/WX    TMP DP  RH WIND       PRES   REMARKS
DAVENPORT      FAIR      16   8  71 SE7       30.19F WCI   6
IOWA CITY      FAIR      16   7  67 CALM      30.17F
MT. PLEASANT * CLOUDY    19  14  79 S9        30.16F WCI   9
MUSCATINE *    FAIR      10   9  92 CALM      30.18F
QUAD CITIES    FAIR      14   7  73 E6        30.18F WCI   5
$$

IAZ062-063-075>077-085>089-095>099-170900-
   SOUTHEAST IOWA

CITY           SKY/WX    TMP DP  RH WIND       PRES   REMARKS
BURLINGTON     CLOUDY    19  12  74 SE5       30.17F WCI  12
FAIRFIELD *    CLOUDY    19  10  68 S8        30.14F WCI   9
FORT MADISON * PTCLDY    21  16  79 SE6       30.18F WCI  14
KEOKUK *       PTCLDY    23  16  74 SE6       30.17F WCI  16
OSKALOOSA *    FAIR      16  10  77 SE8       30.12F WCI   5
OTTUMWA        PTCLDY    20  10  65 S8        30.13F WCI  10
WASHINGTON *   CLOUDY    16  14  93 S8        30.16F WCI   5
$$

ABBREVIATIONS USED IN REMARKS
   TC - TEMPERATURES IN CELSIUS
  WCI - WIND CHILL INDEX
   HX - HEAT INDEX
  VSB - VISIBILITY
$$





USA.gov is the U.S. government's official web portal to all federal, state and local government web resources and services.